Location: ECC Obs
(38.4314°N, 90.9815°W)
Time: 18:55:57
(UTC-06:00)

Hubble Space Telescope - Visible Passes

Search period start: 20 February 2020 00:00
Search period end: 01 March 2020 00:00
Orbit: 536 x 540 km, 28.5° (Epoch: 20 February)

Date Brightness Start Highest point End Pass type
(mag) Time Alt. Az. Time Alt. Az. Time Alt. Az.
20 Feb 2.8 19:19:13 10° SSW 19:21:36 15° SSE 19:21:52 15° SSE visible
21 Feb 2.7 19:08:12 10° SSW 19:10:53 17° S 19:11:57 15° SSE visible
22 Feb 2.7 18:57:17 10° SW 19:00:08 18° S 19:02:00 14° SE visible
23 Feb 2.7 18:46:25 10° SW 18:49:24 19° S 18:52:03 11° SE visible
23 Feb 3.7 20:27:03 10° SW 20:27:23 11° SW 20:27:23 11° SW visible
24 Feb 2.7 18:35:37 10° SW 18:38:39 20° S 18:41:44 10° SE visible
24 Feb 3.4 20:16:28 10° SW 20:17:26 14° SW 20:17:26 14° SW visible
25 Feb 2.7 18:24:51 10° SW 18:27:56 20° S 18:31:02 10° SE visible
25 Feb 3.2 20:05:58 10° SW 20:07:29 15° SSW 20:07:29 15° SSW visible
26 Feb 3.2 19:55:31 10° SW 19:57:34 14° SSW 19:57:34 14° SSW visible
27 Feb 3.2 19:45:17 10° SW 19:47:00 12° SSW 19:47:42 12° S visible
28 Feb 3.4 19:35:31 10° SSW 19:36:13 10° SSW 19:36:56 10° S visible
